Regional Weather Roundup
Issued by NWS

Home | Current Version | Previous Version | Text Only | Print | Product List | Glossary On
Versions: 1 2 3 4 5 6 7 8 9 10 11 12 13 14 15 16 17 18 19 20 21 22 23 24 25 26 27 28 29 30 31 32 33 34 35 36 37 38 39 40 41 42 43 44 45 46 47 48 49 50
000
ASUS45 KABQ 301301
RWRNM
NEW MEXICO REGIONAL WEATHER ROUNDUP
NATIONAL WEATHER SERVICE ALBUQUERQUE NM
700 AM MDT THU JUL 30 2015

NOTE: "FAIR" MEANS FEW OR NO CLOUDS BELOW 12,000 FEET AGL WITH NO
       SIGNIFICANT WEATHER OR OBSTRUCTIONS TO VISION.

      THIS PRODUCT IS RELEASED AS TWO VERSIONS.  ONE VERSION NEAR
      THE TOP OF THE HOUR CONTAINING PRELIMINARY DATA FROM ALBUQUERQUE
      AND OTHER STATIONS.  A FINAL VERSION WITH ADDITIONAL DATA IS
      ISSUED ABOUT 10 MINUTES AFTER THE HOUR.

NMZ501-503-504-510>518-301400-
NORTHWEST PLATEAU/NORTHCENTRAL MOUNTAINS

CITY           SKY/WX    TMP DP  RH WIND       PRES   REMARKS
FARMINGTON     CLEAR     62  49  62 E7        30.36R
SANTA FE       CLOUDY    61  58  90 N3        30.44R
TAOS           CLOUDY    57  46  67 NE3       30.50R

$$
NMZ402-403-502-505>509-301400-
WESTCENTRAL MOUNTAINS/SOUTHWEST MOUNTAINS

CITY           SKY/WX    TMP DP  RH WIND       PRES   REMARKS
GALLUP         MOCLDY    58  56  93 E5        30.40R
SILVER CITY      N/A     63  63 100 SE6       30.36R

$$
NMZ407-409-411-412-301400-
SOUTHERN DESERTS

CITY           SKY/WX    TMP DP  RH WIND       PRES   REMARKS
DEMING         CLOUDY    66  64  93 E12       30.29R
ALAMOGORDO     CLOUDY    68  63  83 CALM      30.32R
T OR C         CLOUDY    65  62  90 N5        30.33R

$$
NMZ519>523-301400-
CENTRAL VALLEYS/CENTRAL HIGHLANDS

CITY           SKY/WX    TMP DP  RH WIND       PRES   REMARKS
ALBUQUERQUE    CLOUDY    65  60  84 N3        30.38R
DOUBLE EAGLE   MOCLDY    61  59  94 N5        30.41R
MORIARTY ARPT    N/A     60  57  88 CALM      30.45R
CLINES CORNERS CLOUDY    57  55  93 E8        30.47R
BELEN          CLOUDY    65  63  93 SE3       30.37R
SOCORRO        NOT AVBL

$$
NMZ524>526-539-540-301400-
SOUTHCENTRAL MOUNTAINS

CITY           SKY/WX    TMP DP  RH WIND       PRES   REMARKS
RUIDOSO          N/A    N/A N/A N/A MISG        N/A

$$
NMZ527>531-301400-
NORTHEAST HIGHLANDS/NORTHEAST PLAINS

CITY           SKY/WX    TMP DP  RH WIND       PRES   REMARKS
LAS VEGAS      CLOUDY    57  56  96 CALM      30.50R
RATON          CLOUDY    59  57  93 CALM      30.46R
CLAYTON        LGT RAIN  63  60  90 W20G28    30.34F

$$
NMZ532>537-301400-
EASTCENTRAL PLAINS

CITY           SKY/WX    TMP DP  RH WIND       PRES   REMARKS
TUCUMCARI      RAIN      64  62  93 NE5       30.36R FOG
CANNON AFB     NOT AVBL
CLOVIS AIRPORT CLOUDY    66  63  88 NW18G24   30.35F

$$
NMZ028-029-538-301400-
SOUTHEAST PLAINS

CITY           SKY/WX    TMP DP  RH WIND       PRES   REMARKS
ROSWELL        PTCLDY    69  62  78 N13G21    30.27R
ARTESIA        CLEAR     68  64  88 N20       30.26R
CARLSBAD       CLEAR     72  63  73 NW16G24   30.22R
HOBBS          PTSUNNY   73  63  68 CALM      30.24R


$$



USA.gov is the U.S. government's official web portal to all federal, state and local government web resources and services.